sat.trackr.live / text

‹ back to catalog

STARLINK-11354 [DTC]

NORAD 61532 · 2024-184A

PAYLOAD ACTIVE UNKNOWN

§ Identity

Operator
Country
US
Launch date
2024-10-15
Launch site
AFWTR
Launch vehicle
Mass (kg)
RCS (m²)

Purposes: comms

External: N2YO · Heavens-Above · Gunter

§ Orbital elements

Epoch: 2026-05-25T04:54:07.816896Z

Period
91.74 min
Inclination
53.1587°
Eccentricity
0.0000929
Mean motion
15.69715179 rev/d
Perigee alt
359.1 km
Apogee alt
360.3 km
Semi-major
6,737.8 km
B*
1.5675e-5
RAAN
219.1595°
Arg perigee
86.8255°
Mean anomaly
273.2869°
Rev number
9,243

§ Raw data

STARLINK-11354 [DTC]1 61532U 24184A   26145.20425714  .00001311  00000+0  15675-4 0  99922 61532  53.1587 219.1595 0000929  86.8255 273.2869 15.69715179 92430

JSON: /api/v1/satellites/61532 · /tle

For live sub-satellite position, see the globe view (requires WebGL).

§ Visibility from observer

Set your observer location to see the next 7 days of passes ≥ 10°. The values pass through the URL so the page stays shareable.

No JS? Fill the form by hand. The geolocation button needs JavaScript.